Voltar ao catálogo

STARLINK-3782

AtivoComunicaçõesVLEO
NORAD 52273·PAYLOAD·🇺🇸 United States

Lançado Apr 21, 2022 de Cape Canaveral Space Force Station

Loading…

Próximas Passagens (próximas 24 horas)

TLE

AtualizadoSource: CelesTrak SupGP

Época: Sep 14, 2026, 20:52 UTC

1 52273C 22041N   26257.86993056 -.00027250  00000+0 -87626-3 0  2572
2 52273  53.1568 318.0091 0001071  74.7218 311.1431 15.31717229    12

Acompanhe STARLINK-3782 em tempo real com AllMySat

Download on the App Store